Find Starlink 5124

NORAD ID: 54011 Int'l Des: 2022-125 Owner: SPXS Country: US Constellation: starlink operational
LEOCIRCULAR

当前视图

正在加载3D地球...

About Starlink 5124

Starlink 5124 (NORAD 54011) is a starlink constellation satellite (v1.5) launched Oct 5, 2022 by SPXS of US. It operates in LEO, CIRCULAR orbit with a mass of 305.00 kg.

关于 Starlink 5124

正在加载描述...

即将过境

Passes for default location (London). Set your location on the main map for personalized predictions.

高度历史

Loading altitude history...

两行轨道根数

1 54011U 22125AZ 26194.83335647 .00068605 00000-0 25989-2 0 9994
2 54011 53.1612 356.7871 0001133 89.4736 61.1485 15.26295982 5798
Epoch: Jul 13, 2026 • Age: 11 hours

当前状态

高度 490.1 km
远地点 / 近地点 N/A
速度 7.63 km/s
星下点 42.22°N, 96.78°E
发射日期 Oct 5, 2022
运行时间 3.7 years
类型 internet

技术详情

分类 Payload
质量 305.00 kg
干质量 290.00 kg
总质量 305.00 kg
长度 0.20 m
直径 2.80 m
跨度 9.00 m
形状 Box + pan
制造商 SPXS
平台类型 Starlink
阶段状态 In Orbit
所有者/国家 SPXS/US

Most Searched